Rockford, IL

10:39 PM CDT on March 23, 2017 (GMT -0500)
Greater Rockford

Weather History for KRFD - July, 2014

Change the Weather History Date:

Sunday, July 6, 2014

  Actual Average Record
Temperature  
Mean Temperature 74 °F 74 °F  
Max Temperature 86 °F 85 °F 104 °F (2012)
Min Temperature 62 °F 63 °F 44 °F (1967)
Degree Days  
Heating Degree Days 0 0  
Month to date heating degree days 3 0  
Since 1 June heating degree days 14 31  
Since 1 July heating degree days 3 0  
Cooling Degree Days 9 9  
Month to date cooling degree days 20 54  
Year to date cooling degree days 298 284  
Since 1 June cooling degree days 215 229  
Growing Degree Days 24 (Base 50)    
Moisture  
Dew Point 66 °F    
Average Humidity 76    
Maximum Humidity 90    
Minimum Humidity 61    
Precipitation  
Precipitation 0.38 in 0.12 in 1.93 in (1947)
Month to date precipitation 0.47 0.74  
Year to date precipitation 18.50 17.86  
Snow  
Snow 0.00 in 0.00 in 0.00 in ()
Month to date snowfall 0.0 0.0  
Since 1 June snowfall 0.0 0.0  
Since 1 July snowfall 0.0 0.0  
Snow Depth 0.00 in    
Sea Level Pressure  
Sea Level Pressure 29.87 in    
Wind  
Wind Speed 11 mph (SSW)    
Max Wind Speed 22 mph    
Max Gust Speed 30 mph    
Visibility 9 miles    
Events Rain , Thunderstorm    
T = Trace of Precipitation, MM = Missing Value Source: NWS Daily Summary

Daily Weather History Graph

Daily Weather History Graph

Search for Another Location

Airport or City:

Trip Planner

Search our weather history database for the weather conditions in past years. The results will help you decide how hot, cold, wet, or windy it might be!

Date:

Astronomy

Jul. 06, 2014 Rise Set
Actual Time 5:26 AM CDT 8:35 PM CDT
Civil Twilight 4:52 AM CDT 9:09 PM CDT
Nautical Twilight 4:08 AM CDT 9:53 PM CDT
Astronomical Twilight 3:16 AM CDT 10:45 PM CDT
Moon 2:31 PM CDT (7/6) 12:50 AM CDT (7/6)
Length of Visible Light 16h 16m
Length of Day
15h 08m
Waxing Gibbous, 62% of the Moon is Illuminated
Jul 6
Waxing Gibbous
Jul 12
Full
Jul 18
Last Quarter
Jul 26
New
Aug 3
First Quarter

Hourly Weather History & Observations

Time (CDT) Temp. Heat Index Dew Point Humidity Pressure Visibility Wind Dir Wind Speed Gust Speed Precip Events Conditions
12:54 AM 66.0 °F - 60.1 °F 81% 30.04 in 10.0 mi SSW 10.4 mph - N/A   Overcast
1:54 AM 64.9 °F - 60.1 °F 84% 30.03 in 10.0 mi SSW 8.1 mph - N/A   Overcast
2:47 AM 64.9 °F - 59.0 °F 81% 30.01 in 10.0 mi South 6.9 mph - N/A   Overcast
2:54 AM 64.9 °F - 59.0 °F 81% 29.99 in 10.0 mi South 6.9 mph - N/A   Overcast
3:02 AM 64.4 °F - 59.0 °F 83% 30.00 in 10.0 mi South 6.9 mph - N/A   Overcast
3:54 AM 63.0 °F - 59.0 °F 87% 29.97 in 10.0 mi SSW 8.1 mph - N/A   Scattered Clouds
4:54 AM 62.1 °F - 59.0 °F 90% 29.95 in 10.0 mi South 4.6 mph - N/A   Partly Cloudy
5:37 AM 62.1 °F - 59.0 °F 90% 29.96 in 8.0 mi South 4.6 mph - N/A   Mostly Cloudy
5:54 AM 63.0 °F - 59.0 °F 87% 29.96 in 8.0 mi South 5.8 mph - N/A   Mostly Cloudy
6:54 AM 64.0 °F - 60.1 °F 87% 29.94 in 7.0 mi South 8.1 mph - N/A   Partly Cloudy
7:54 AM 66.9 °F - 62.1 °F 84% 29.94 in 10.0 mi South 6.9 mph - N/A   Overcast
8:21 AM 68.0 °F - 62.1 °F 81% 29.95 in 10.0 mi SSW 8.1 mph - N/A   Overcast
8:43 AM 70.0 °F - 63.0 °F 78% 29.94 in 10.0 mi South 8.1 mph - N/A   Mostly Cloudy
8:54 AM 71.1 °F - 64.0 °F 78% 29.94 in 10.0 mi SW 5.8 mph - N/A   Mostly Cloudy
9:50 AM 73.4 °F - 66.2 °F 78% 29.91 in 10.0 mi SW 6.9 mph - N/A   Overcast
9:54 AM 73.9 °F - 66.0 °F 76% 29.90 in 10.0 mi SSW 9.2 mph - N/A   Overcast
10:01 AM 73.9 °F - 66.0 °F 76% 29.91 in 10.0 mi SSW 8.1 mph - N/A   Mostly Cloudy
10:39 AM 75.9 °F - 68.0 °F 76% 29.91 in 10.0 mi SW 9.2 mph - N/A   Overcast
10:54 AM 78.1 °F - 69.1 °F 74% 29.89 in 10.0 mi WSW 10.4 mph - N/A   Mostly Cloudy
11:27 AM 78.8 °F - 69.8 °F 74% 29.89 in 10.0 mi WSW 8.1 mph - N/A   Overcast
11:54 AM 78.1 °F - 69.1 °F 74% 29.88 in 10.0 mi SSW 15.0 mph - N/A   Overcast
12:54 PM 79.0 °F - 69.1 °F 72% 29.87 in 10.0 mi SW 15.0 mph - N/A   Overcast
1:54 PM 82.0 °F 85.9 °F 70.0 °F 67% 29.83 in 10.0 mi SSW 15.0 mph 20.7 mph N/A   Mostly Cloudy
2:54 PM 82.0 °F 86.3 °F 71.1 °F 69% 29.79 in 10.0 mi SW 15.0 mph - N/A   Mostly Cloudy
3:54 PM 82.9 °F 88.0 °F 72.0 °F 69% 29.77 in 10.0 mi SW 13.8 mph - N/A   Mostly Cloudy
4:37 PM 84.9 °F 90.7 °F 72.0 °F 65% 29.78 in 10.0 mi SW 13.8 mph 20.7 mph N/A   Overcast
4:54 PM 82.9 °F 88.0 °F 72.0 °F 69% 29.76 in 10.0 mi WSW 9.2 mph - N/A   Overcast
5:54 PM 84.9 °F 88.8 °F 69.1 °F 59% 29.74 in 10.0 mi SW 19.6 mph 26.5 mph N/A   Scattered Clouds
6:54 PM 82.9 °F 87.5 °F 71.1 °F 67% 29.75 in 10.0 mi SSW 12.7 mph 21.9 mph N/A   Mostly Cloudy
7:54 PM 82.0 °F 85.9 °F 70.0 °F 67% 29.74 in 10.0 mi SW 12.7 mph - N/A   Overcast
8:54 PM 80.1 °F 83.2 °F 70.0 °F 71% 29.74 in 10.0 mi SSW 9.2 mph - N/A   Overcast
9:54 PM 79.0 °F - 70.0 °F 74% 29.74 in 10.0 mi SSW 12.7 mph - N/A   Overcast
10:54 PM 78.1 °F - 70.0 °F 76% 29.72 in 10.0 mi SW 10.4 mph - N/A   Overcast
11:09 PM 78.8 °F - 69.8 °F 74% 29.73 in 10.0 mi SSW 15.0 mph - N/A Thunderstorm Thunderstorm
11:44 PM 75.9 °F - 71.1 °F 85% 29.74 in 2.0 mi SSW 11.5 mph - 0.20 in Rain , Thunderstorm Heavy Thunderstorms and Rain
11:54 PM 75.9 °F - 71.1 °F 85% 29.70 in 2.0 mi SW 20.7 mph 29.9 mph 0.35 in Rain , Thunderstorm Heavy Thunderstorms and Rain